www.pogodaiklimat.ru

Погода и климат >> Архив погоды >> Канада >> Grand Etang


ПОГОДА в Grand Etang

  • Прогноз погоды в Grand Etang
  • Монитор погоды в Grand Etang
  • Климат города

АРХИВ ПОГОДЫ в Grand Etang

Время (UTC), дата Ветер
(напр.,м/с)
 
Видим.   Явления Облачность Т
(С)
Тd
(С)
f
(%)
Тe
(С)
Тes
(С)
Комфортность P
(гПа)
Po
(гПа)
Тmin
(С)
Tmax
(С)
R
(мм)
R24
(мм)
S
(см)
15 17.06 В 3 16 км 10/0 2000 м
[]
+3.0 +2.1 94 -1 +6 1009.9 1003.8
18 17.06 Ю 3 16 км 9/0 2000 м
[]
+8.0 +3.6 74 +6 +14 1009.1 1003.1 +1.9 +8.2
21 17.06 Ю 2 16 км 10/0 2000 м
[]
+9.6 +5.7 77 +8 +10 1009.3 1003.3
00 18.06 ЮЗ 6 16 км 5/0
[]
+9.1 +6.2 82 +5 +5 1009.4 1003.4 +1.9 +10.8
03 18.06 ЮЗ 3 16 км 3/0
[]
+5.4 +4.8 96 +2 +2 1009.6 1003.5
06 18.06 В 3 14 км 10/0
[]
+3.8 +3.2 96 -0 -0 1009.2 1003.2 +1.9 +10.8 0
09 18.06 В 3 200 м слаб. дождь н/о +1.6 +1.6 100 -3 -3 1008.8 1002.8 +1.6 +10.8
12 18.06 В 7 16 км 10/10 1500 м
[]
+2.5 +2.2 98 -4 -4 1008.1 1002.1 +1.6 +10.8
15 18.06 В 7 16 км 10/10 1500 м
[]
+3.0 +2.4 96 -3 -3 1007.5 1001.5
18 18.06 В 7 16 км 10/10 300 м
[]
+3.9 +3.0 94 -2 -2 1006.8 1000.8 +1.6 +3.9
21 18.06 В 5 11 км слаб. дождь 10/10 300 м
[]
+3.1 +3.0 99 -3 -3 1006.5 1000.4
00 19.06 В 6 1000 м слаб. дождь {осадки} н/о +2.7 +2.7 100 -4 -4 1005.3 999.3 +1.6 +4.2 1
03 19.06 В 6 300 м туман {осадки} н/о +2.3 +2.3 100 -4 -4 1004.2 998.2
06 19.06 СВ 8 16 км 10/10 50 м
[]
+1.6 +1.6 100 -6 -6 1002.9 996.9 +1.6 +4.2 2 2
09 19.06 СВ 5 8000 м слаб. дождь {осадки} 10/10 50 м
[]
+1.3 +1.3 100 -5 -5 1002.2 996.2
12 19.06 СВ 4 2000 м дымка {осадки} 10/10 50 м
[]
+1.9 +1.9 100 -3 -3 1002.4 996.4 +1.2 +4.2 0.5
15 19.06 З 3 16 км н/о +3.6 +3.3 98 -1 -1 1002.5 996.5 +1.2 +3.7
18 19.06 С 7 3200 м дымка 10/10 50 м
[]
+2.4 +2.1 98 -4 -4 1003.4 997.4 +1.2 +3.7
21 19.06 С 10 4800 м слаб. дождь 10/10 200 м
[]
+3.2 +2.6 96 -4 -4 1005.1 999.0
00 20.06 С 11 16 км 10/10 200 м
[]
+3.0 +1.8 92 -5 -5 1007.0 1000.9 +1.2 +3.7
03 20.06 СЗ 9 16 км 10/10 200 м
[]
+2.1 +1.4 95 -5 -5 1008.1 1002.0
06 20.06 СЗ 8 16 км 10/10 1000 м
[]
+1.2 +0.6 96 -6 -6 1008.9 1002.8 +1.2 +3.7 1
09 20.06 СЗ 9 16 км 10/10 200 м
[]
+1.0 +0.4 96 -7 -7 1008.6 1002.5
12 20.06 С 8 16 км 10/0 2000 м
[]
+1.9 +1.0 94 -5 -5 1009.5 1003.4 +1.0 +3.7
15 20.06 СЗ 9 16 км слаб. дождь 10/10 1000 м
[]
+2.3 +1.4 94 -5 -5 1010.0 1003.9
00 21.06 С 8 16 км 10/10 300 м
[]
+3.9 +1.7 86 -2 -2 1010.1 1004.0
03 21.06 С 9 16 км 10/10 600 м
[]
+2.8 +1.3 90 -4 -4 1009.8 1003.7
06 21.06 СЗ 7 16 км 10/10 600 м
[]
+1.9 +0.7 92 -5 -5 1009.5 1003.4 91
09 21.06 С 7 16 км 10/10 600 м
[]
+1.9 +0.7 92 -5 -5 1009.4 1003.3
12 21.06 С 7 16 км 10/10 300 м
[]
+2.5 +1.2 91 -4 -4 1009.3 1003.2 +1.8
15 21.06 СВ 8 16 км 10/10 300 м
[]
+4.0 +1.9 86 -2 -2 1009.8 1003.7
18 21.06 СВ 8 16 км 10/10 300 м
[]
+5.8 +2.9 82 0 0 1010.3 1004.2 +5.9
21 21.06 С 4 16 км н/о +8.4 +2.9 68 +5 +5 1010.5 1004.5 +1.8 +8.4
00 22.06 С 10 16 км 9/9 1500 м
[]
+8.0 +3.5 73 +3 +3 1011.2 1005.1
03 22.06 С 4 16 км н/о +5.7 +1.9 77 +2 +2 1011.6 1005.5 +1.8 +9.1
06 22.06 С 4 16 км н/о +2.5 +1.5 93 -2 -2 1011.6 1005.5 +1.8 +9.1
09 22.06 С 8 16 км 10/10 100 м
[]
+1.6 +1.2 97 -6 -6 1011.8 1005.7
12 22.06 С 7 16 км 10/10 200 м
[]
+1.8 +0.6 92 -5 -5 1012.5 1006.4
15 22.06 СЗ 5 16 км 10/10 300 м
[]
+3.6 +1.3 85 -2 -2 1012.5 1006.4
18 22.06 С 5 16 км 9/9 300 м
[]
+6.7 +2.3 73 +3 +4 1012.6 1006.5
21 22.06 В 3 16 км ясно +6.4 +2.1 74 +3 +7 1013.3 1007.2
00 23.06 ЮЗ 2 16 км н/о +6.3 +1.9 73 +5 +5 1014.2 1008.1 +7.4
03 23.06 С 3 16 км н/о +7.6 +2.4 70 +5 +5 1014.6 1008.5 +1.3 +7.7
06 23.06 СЗ 4 16 км н/о +3.7 +2.1 89 -1 -1 1015.0 1008.9 +1.3 +7.7
09 23.06 СЗ 4 16 км н/о +2.7 +2.0 95 -2 -2 1014.9 1008.8 +1.6 +7.7
12 23.06 СЗ 6 16 км ясно +4.7 +2.4 85 -1 +2 1015.4 1009.3
15 23.06 СЗ 7 16 км ясно +7.4 +2.7 72 +3 +7 1015.6 1009.5
18 23.06 С 8 16 км ясно +9.8 +1.7 57 +6 +9 1015.6 1009.5
21 23.06 СЗ 6 16 км ясно +11.0 +3.1 58 +8 +10 1015.5 1009.4
00 24.06 СЗ 7 16 км 5/0
[]
+11.1 +2.3 55 +8 +8 1015.6 1009.6
03 24.06 З 3 16 км н/о +9.3 +4.6 72 +7 +7 1014.7 1008.7 +2.5 +11.7
06 24.06 З 3 16 км 10/10 1000 м
[]
+4.8 +3.4 91 +2 +2 1014.1 1008.1
09 24.06 С 2 16 км слаб. дождь н/о +6.4 +5.4 93 +4 +4 1013.6 1007.6 +2.5 +11.7
12 24.06 С 4 1200 м дымка н/о +2.5 +2.4 99 -2 -2 1014.6 1008.5 +2.5 +11.7 0.2

 

Местоположение метеостанции Grand Etang (Канада): широта 46.55 долгота -61.05 высота над уровнем моря 13 м.

В архиве по умолчанию представлена погода в Grand Etang за последнюю неделю. Архивные данные за месяц целиком и за предыдущие месяцы, начиная с января 2011 года, Вы можете получить, выбрав интересующий диапазон дат из раскрывающегося списка и нажав кнопку "Ввод!".

Внимание! Время в таблицах - всемирное. Для получения местного времени необходимо прибавить поправку, которая в Grand Etang равна -4 ч.

Смотрите также архив погоды в соседних городах и на ближайших метеорологических станциях:

Погода в Cheticamp (Канада) (13 км)
Погода в North Mountain (Канада) (42 км)
Погода в Ingonish Beach (Канада) (51 км)
Погода в East Point (Канада) (71 км)
Погода в Sydney (Канада) (88 км)
Погода в Sydney Rcs (Канада) (88 км)
Погода в St Paul Island (Канада) (103 км)
Погода в Port Hawkesbury (Канада) (103 км)
Погода в Lles de la Madelein (Канада) (111 км)
Погода в Lles de la Madelein (Канада) (111 км)

Пояснения к столбцам:

Ветер - указаны скорость ветра в м/с - средняя за 10 мин, порывы в срок и между сроками (в фигурных скобках) и направление, откуда дует ветер: С - северный, СВ - северо-восточный, В - восточный, ЮВ - юго-восточный, Ю - южный, ЮЗ - юго-западный, З - западный, СЗ - северо-западный.
Видимость - горизонтальная дальность видимости в метрах или километрах. При видимости от 1 до 10 км при отсутствии осадков обычно наблюдается дымка, при ухудшении видимости до 1 км и менее - туман. В сухую погоду видимость может ухудшаться дымом, пылью или мглою.
Явления - указаны атмосферные явления, наблюдавшиеся в срок или в последний час перед сроком; фигурными скобками обозначены явления, наблюдавшиеся между сроками (за 1-3 часа до срока); квадратными скобками обозначены град или гололедные отложения с указанием их диаметра в мм.
Облачность - указаны через наклонную черту общая и нижняя облачность в баллах и высота нижней границы облаков в метрах; квадратными скобками обозначены формы облаков: Ci - перистые, Cs - перисто-слоистые, Cc - перисто-кучевые, Ac - высококучевые, As - высокослоистые, Sc - слоисто-кучевые, Ns - слоисто-дождевые, Cu - кучевые, Cb - кучево-дождевые. Подробнее классификацию облаков см. в Атласе облаков (PDF).
T - Температура воздуха - температура, измеренная на высоте 2 м над землей.
Td - Температура точки росы - температура, при понижении до которой содержащийся в воздухе водяной пар достигнет насыщения.
f - Относительная влажность воздуха - влажноcть воздуха, измеренная на высоте 2 м над землей.
Te - Эффективная температура - температура, которую ощущает одетый по сезону человек в тени. Характеристика душности погоды. При расчете учитывается влияние влажности воздуха и скорости ветра на теплоощущения человека.
Tes - Эффективная температура на солнце - температура, которую ощущает человек, с поправкой на солнечный нагрев. Характеристика знойности погоды. Зависит от высоты солнца над горизонтом, облачности и скорости ветра. Ночью, в пасмурную погоду, а также при ветре 12 м/с и более поправка равна нулю.
P - Атмосферное давление - приведенное к уровню моря атмосферное давление.
Po - Атмосферное давление - измеренное на уровне метеостанции атмосферное давление.
Tmin - Минимальная температура - минимум температуры воздуха на высоте 2 м над землей.
Tmax - Максимальная температура - максимум температуры воздуха на высоте 2 м над землей.
R - Количество осадков - Количество выпавших осадков за период времени, мм. При наведении курсора мыши на число - период времени, за который выпало указанное количество осадков.
R24 - Количество осадков - Количество выпавших осадков за 24 часа, мм.
S - Снежный покров - Высота снежного покрова, см. При наведении курсора мыши на число - состояние снежного покрова и степень покрытия местности в баллах.